Content
SEND FEEDBACK

Daily
Averages
Monthly
Summary
United States of America

OLYMPIC VALLEY, CALIFORNIA


Home > North America > United States > California
Elevation: 6488 feet     Latitude: 39 10N     Longitude: 120 09W

WEATHER
 
SELECT A DAY
Number of Records: 282,323;   Date Range: 1/1/95 - 7/29/14
 
SHARE

PRINT THIS DATA

[ ← Previous Day ]
WEATHER ALMANAC - SEPTEMBER 18, 2013
[ Next Day → ]
[ °C ]   °F
Weather ElementAverageHighLow
Temperature43.2 °F68 °F (3:45 pm)24.8 °F (6:50 am)
Dewpoint26.9 °F32 °F (8:55 am)10.4 °F (3:45 pm)
Humidity61.7 %100 % (3:35 am)11 % (3:45 pm)
Barometer30.11 in30.15 in (8:55 am)30.06 in (3:45 pm)
Wind Speed2.2 mph10.4 mph (3:45 pm)
Wind Gust16.1 mph (4:50 pm)
Weather ElementAverage
Visibility8.8 mi
Wind DirectionENE (51.4 °)

Weather ElementTotal
Precipitation---
Heating Degree Days18.6 (Base 65)
Averaged from 50 records on September 18, 2013
WEATHER CONDITIONS BREAKOUT
WIND DIRECTION BREAKOUT
WEATHER BY HOUR - SEPTEMBER 18, 2013
[ °C ]   °F
Local TimeTemperatureDewpointHumidityBarometerVisibilityWind DirectionWind SpeedGust SpeedPrecipitationEventsConditions
12:35 AM35.6 °F28.4 °F75 %30.08 in10.0 miSSE (160°)4.6 mphClear
12:55 AM32.0 °F26.6 °F80 %30.09 in10.0 miCalmClear
1:15 AM32.0 °F28.4 °F87 %30.09 in10.0 miCalmClear
1:35 AM32.0 °F30.2 °F93 %30.09 in10.0 miCalmClear
1:55 AM32.0 °F28.4 °F87 %30.09 in10.0 miCalmClear
2:15 AM28.4 °F26.6 °F93 %30.10 in10.0 miCalmClear
2:35 AM32.0 °F26.6 °F80 %30.10 in10.0 miCalmClear
2:55 AM30.2 °F26.6 °F86 %30.09 in10.0 miCalmClear
3:15 AM32.0 °F28.4 °F87 %30.09 in9.0 miSouth (170°)3.5 mphClear
3:35 AM28.4 °F28.4 °F100 %30.08 in1.8 miSouth (190°)3.5 mphClear
3:55 AM28.4 °F26.6 °F93 %30.09 in10.0 miCalmClear
4:15 AM30.2 °F28.4 °F93 %30.08 in10.0 miCalmClear
4:35 AM28.4 °F26.6 °F93 %30.08 in10.0 miCalmClear
4:55 AM26.6 °F26.6 °F100 %30.09 in7.0 miCalmClear
5:15 AM26.6 °F26.6 °F100 %30.09 in0.2 miCalmFogLight Freezing Fog
5:35 AM28.4 °F28.4 °F100 %30.09 in2.5 miCalmClear
5:55 AM26.6 °F24.8 °F93 %30.10 in1.2 miCalmClear
6:15 AM26.6 °F24.8 °F93 %30.11 in0.2 miCalmFogLight Freezing Fog
6:35 AM26.6 °F26.6 °F100 %30.12 in1.0 miCalmClear
6:50 AM24.8 °F24.8 °F100 %30.12 in7.0 miCalmFogShallow Fog
7:45 AM28.4 °F26.6 °F93 %30.14 in10.0 miCalmPartly Cloudy
8:55 AM39.2 °F32.0 °F75 %30.15 in10.0 miCalmPartly Cloudy
9:55 AM46.4 °F32.0 °F57 %30.14 in10.0 miCalmPartly Cloudy
10:45 AM50.0 °F32.0 °F50 %30.14 in10.0 miCalmPartly Cloudy
11:50 AM55.4 °F32.0 °F41 %30.13 in10.0 miEast (80°)5.8 mphClear
12:45 PM60.8 °F32.0 °F34 %30.11 in10.0 miNorth (360°)6.9 mphClear
1:45 PM64.4 °F26.6 °F24 %30.09 in10.0 miCalmClear
2:45 PM66.2 °F23.0 °F19 %30.07 in10.0 miNorth (350°)4.6 mphClear
3:45 PM68.0 °F10.4 °F11 %30.06 in10.0 miNNE (30°)10.4 mphClear
4:50 PM68.0 °F23.0 °F18 %30.06 in10.0 miNE (40°)9.2 mph16.1 mphClear
5:45 PM66.2 °F26.6 °F23 %30.06 in10.0 miENE (60°)5.8 mphClear
5:55 PM66.2 °F26.6 °F23 %30.06 in10.0 miENE (60°)6.9 mphClear
6:15 PM66.2 °F26.6 °F23 %30.07 in10.0 miNE (50°)8.1 mphClear
6:35 PM64.4 °F26.6 °F24 %30.08 in10.0 miNE (50°)6.9 mphClear
6:55 PM62.6 °F26.6 °F26 %30.08 in10.0 miNE (50°)8.1 mphClear
7:15 PM59.0 °F24.8 °F27 %30.09 in10.0 miNE (50°)3.5 mphClear
7:35 PM59.0 °F24.8 °F27 %30.09 in10.0 miCalmClear
7:55 PM55.4 °F24.8 °F31 %30.10 in10.0 miCalmClear
8:15 PM50.0 °F24.8 °F37 %30.11 in10.0 miCalmClear
8:35 PM48.2 °F26.6 °F43 %30.12 in10.0 miCalmClear
8:55 PM46.4 °F26.6 °F46 %30.13 in10.0 miSSE (150°)5.8 mphClear
9:15 PM44.6 °F26.6 °F49 %30.14 in10.0 miCalmClear
9:35 PM44.6 °F26.6 °F49 %30.14 in10.0 miSSE (160°)3.5 mphClear
9:55 PM44.6 °F26.6 °F49 %30.14 in10.0 miSSE (150°)4.6 mphClear
10:15 PM44.6 °F28.4 °F53 %30.14 in10.0 miCalmClear
10:35 PM44.6 °F28.4 °F53 %30.14 in10.0 miSouth (180°)3.5 mphClear
10:55 PM41.0 °F26.6 °F57 %30.15 in10.0 miCalmClear
11:15 PM41.0 °F26.6 °F57 %30.15 in10.0 miCalmClear
11:35 PM37.4 °F26.6 °F65 %30.15 in10.0 miSW (230°)3.5 mphClear
11:55 PM37.4 °F28.4 °F70 %30.15 in10.0 miCalmClear
Hourly data recorded from KTRK, located miles away from Olympic Valley, California







STORIES FROM OUR PARTNERS